Time,TemperatureF,DewpointF,PressureIn,WindDirection,WindDirectionDegrees,WindSpeedMPH,WindSpeedGustMPH,Humidity,HourlyPrecipIn,Conditions,Clouds,dailyrainin,SoftwareType,DateUTC
2013-02-27 00:02:00,32.0,28.0,-100.00,SSE,151,1.0,2.0,84,-99.99,,,-99.99,,2013-02-27 05:02:00,
2013-02-27 00:12:00,31.0,27.0,-100.00,SSE,149,0.0,2.0,84,-99.99,,,-99.99,,2013-02-27 05:12:00,
2013-02-27 00:22:00,32.0,27.0,-100.00,SE,130,1.0,2.0,83,-99.99,,,-99.99,,2013-02-27 05:22:00,
2013-02-27 00:32:00,32.0,27.0,-100.00,SE,131,1.0,4.0,82,-99.99,,,-99.99,,2013-02-27 05:32:00,
2013-02-27 00:42:00,32.0,27.0,-100.00,ESE,119,1.0,4.0,80,-99.99,,,-99.99,,2013-02-27 05:42:00,
2013-02-27 00:52:00,32.0,26.0,-100.00,SE,129,2.0,4.0,78,-99.99,,,-99.99,,2013-02-27 05:52:00,
2013-02-27 01:02:00,32.0,26.0,-100.00,SE,129,2.0,4.0,78,-99.99,,,-99.99,,2013-02-27 06:02:00,
2013-02-27 01:11:00,32.0,25.0,-100.00,SE,140,4.0,8.0,74,-99.99,,,-99.99,,2013-02-27 06:11:00,
2013-02-27 01:22:00,32.0,25.0,-100.00,ESE,105,3.0,6.0,74,-99.99,,,-99.99,,2013-02-27 06:22:00,
2013-02-27 01:33:00,32.0,25.0,-100.00,East,99,4.0,8.0,74,-99.99,,,-99.99,,2013-02-27 06:33:00,
2013-02-27 01:42:00,31.0,24.0,-100.00,SSE,150,3.0,8.0,74,-99.99,,,-99.99,,2013-02-27 06:42:00,
2013-02-27 01:52:00,31.0,24.0,-100.00,ESE,102,4.0,11.0,74,-99.99,,,-99.99,,2013-02-27 06:52:00,
2013-02-27 02:01:00,31.0,24.0,-100.00,SE,126,2.0,6.0,76,-99.99,,,-99.99,,2013-02-27 07:01:00,
2013-02-27 02:12:00,31.0,24.0,-100.00,East,92,2.0,6.0,73,-99.99,,,-99.99,,2013-02-27 07:12:00,
2013-02-27 02:22:00,31.0,24.0,-100.00,East,97,3.0,8.0,72,-99.99,,,-99.99,,2013-02-27 07:22:00,
2013-02-27 02:32:00,31.0,24.0,-100.00,SE,124,3.0,6.0,72,-99.99,,,-99.99,,2013-02-27 07:32:00,
2013-02-27 02:42:00,31.0,23.0,-100.00,SSW,196,4.0,8.0,72,-99.99,,,-99.99,,2013-02-27 07:42:00,
2013-02-27 02:51:00,31.0,23.0,-100.00,SW,232,4.0,8.0,72,-99.99,,,-99.99,,2013-02-27 07:51:00,
2013-02-27 03:01:00,31.0,23.0,-100.00,SE,128,2.0,6.0,72,-99.99,,,-99.99,,2013-02-27 08:01:00,
2013-02-27 03:11:00,31.0,23.0,-100.00,South,185,1.0,4.0,73,-99.99,,,-99.99,,2013-02-27 08:11:00,
2013-02-27 03:22:00,31.0,23.0,-100.00,South,170,2.0,6.0,73,-99.99,,,-99.99,,2013-02-27 08:22:00,
2013-02-27 03:32:00,31.0,23.0,-100.00,SE,130,2.0,6.0,72,-99.99,,,-99.99,,2013-02-27 08:32:00,
2013-02-27 03:42:00,31.0,23.0,-100.00,South,181,1.0,4.0,72,-99.99,,,-99.99,,2013-02-27 08:42:00,
2013-02-27 03:52:00,31.0,23.0,-100.00,South,178,0.0,2.0,73,-99.99,,,-99.99,,2013-02-27 08:52:00,
2013-02-27 04:02:00,31.0,23.0,-100.00,SW,223,2.0,6.0,70,-99.99,,,-99.99,,2013-02-27 09:02:00,
2013-02-27 04:12:00,31.0,23.0,-100.00,SSW,200,3.0,8.0,71,-99.99,,,-99.99,,2013-02-27 09:12:00,
2013-02-27 04:22:00,31.0,23.0,-100.00,SSW,194,2.0,6.0,71,-99.99,,,-99.99,,2013-02-27 09:22:00,
2013-02-27 04:32:00,31.0,23.0,-100.00,South,185,2.0,4.0,71,-99.99,,,-99.99,,2013-02-27 09:32:00,
2013-02-27 04:42:00,31.0,23.0,-100.00,South,174,2.0,4.0,71,-99.99,,,-99.99,,2013-02-27 09:42:00,
2013-02-27 04:51:00,31.0,23.0,-100.00,SE,135,2.0,4.0,70,-99.99,,,-99.99,,2013-02-27 09:51:00,
2013-02-27 05:01:00,32.0,23.0,-100.00,South,179,2.0,4.0,70,-99.99,,,-99.99,,2013-02-27 10:01:00,
2013-02-27 05:12:00,32.0,23.0,-100.00,SSW,199,1.0,4.0,70,-99.99,,,-99.99,,2013-02-27 10:12:00,
2013-02-27 05:22:00,31.0,23.0,-100.00,South,170,1.0,2.0,70,-99.99,,,-99.99,,2013-02-27 10:22:00,
2013-02-27 05:32:00,31.0,23.0,-100.00,SSE,161,1.0,4.0,71,-99.99,,,-99.99,,2013-02-27 10:32:00,
2013-02-27 05:42:00,31.0,23.0,-100.00,SSE,149,2.0,4.0,72,-99.99,,,-99.99,,2013-02-27 10:42:00,
2013-02-27 05:52:00,31.0,23.0,-100.00,SE,131,2.0,6.0,72,-99.99,,,-99.99,,2013-02-27 10:52:00,
2013-02-27 06:02:00,31.0,24.0,-100.00,NE,54,0.0,2.0,76,-99.99,,,-99.99,,2013-02-27 11:02:00,
2013-02-27 06:12:00,30.0,24.0,-100.00,West,262,0.0,2.0,79,-99.99,,,-99.99,,2013-02-27 11:12:00,
2013-02-27 06:22:00,31.0,24.0,-100.00,ESE,119,4.0,13.0,75,-99.99,,,-99.99,,2013-02-27 11:22:00,
2013-02-27 06:32:00,32.0,23.0,-100.00,SE,142,1.0,4.0,71,-99.99,,,-99.99,,2013-02-27 11:32:00,
2013-02-27 06:42:00,32.0,23.0,-100.00,SSE,158,0.0,2.0,71,-99.99,,,-99.99,,2013-02-27 11:42:00,
2013-02-27 06:52:00,32.0,24.0,-100.00,SE,126,2.0,4.0,71,-99.99,,,-99.99,,2013-02-27 11:52:00,
2013-02-27 07:02:00,32.0,24.0,-100.00,SE,126,2.0,4.0,71,-99.99,,,-99.99,,2013-02-27 12:02:00,
2013-02-27 07:13:00,32.0,24.0,-100.00,ESE,117,3.0,6.0,71,-99.99,,,-99.99,,2013-02-27 12:13:00,
2013-02-27 07:22:00,32.0,24.0,-100.00,ESE,116,2.0,4.0,72,-99.99,,,-99.99,,2013-02-27 12:22:00,
2013-02-27 07:33:00,32.0,24.0,-100.00,SE,126,1.0,4.0,71,-99.99,,,-99.99,,2013-02-27 12:33:00,
2013-02-27 07:42:00,32.0,24.0,-100.00,SE,136,1.0,4.0,70,-99.99,,,-99.99,,2013-02-27 12:42:00,
2013-02-27 07:52:00,32.0,24.0,-100.00,SE,135,1.0,4.0,70,-99.99,,,-99.99,,2013-02-27 12:52:00,
2013-02-27 08:02:00,33.0,24.0,-100.00,SE,127,9.0,19.0,69,-99.99,,,-99.99,,2013-02-27 13:02:00,
2013-02-27 08:12:00,33.0,25.0,-100.00,ESE,119,9.0,17.0,70,-99.99,,,-99.99,,2013-02-27 13:12:00,
2013-02-27 08:22:00,33.0,25.0,-100.00,ESE,120,8.0,13.0,71,-99.99,,,-99.99,,2013-02-27 13:22:00,
2013-02-27 08:32:00,33.0,26.0,-100.00,SE,146,9.0,19.0,74,-99.99,,,-99.99,,2013-02-27 13:32:00,
2013-02-27 08:42:00,33.0,27.0,-100.00,SSE,152,6.0,11.0,75,-99.99,,,-99.99,,2013-02-27 13:42:00,
2013-02-27 08:52:00,34.0,26.0,-100.00,ESE,114,8.0,15.0,74,-99.99,,,-99.99,,2013-02-27 13:52:00,
2013-02-27 09:02:00,34.0,26.0,-100.00,ESE,120,8.0,13.0,72,-99.99,,,-99.99,,2013-02-27 14:02:00,
2013-02-27 09:12:00,34.0,26.0,-100.00,ESE,105,6.0,10.0,71,-99.99,,,-99.99,,2013-02-27 14:12:00,
2013-02-27 09:22:00,34.0,26.0,-100.00,ESE,115,5.0,10.0,71,-99.99,,,-99.99,,2013-02-27 14:22:00,
2013-02-27 09:32:00,34.0,26.0,-100.00,ESE,104,3.0,8.0,70,-99.99,,,-99.99,,2013-02-27 14:32:00,
2013-02-27 09:42:00,35.0,26.0,-100.00,SE,124,4.0,10.0,70,-99.99,,,-99.99,,2013-02-27 14:42:00,
2013-02-27 09:52:00,35.0,26.0,-100.00,SE,124,6.0,11.0,69,-99.99,,,-99.99,,2013-02-27 14:52:00,
2013-02-27 10:02:00,35.0,26.0,-100.00,ESE,118,6.0,11.0,69,-99.99,,,-99.99,,2013-02-27 15:02:00,
2013-02-27 10:12:00,35.0,26.0,-100.00,ESE,103,6.0,11.0,69,-99.99,,,-99.99,,2013-02-27 15:12:00,
2013-02-27 10:23:00,36.0,27.0,-100.00,East,86,4.0,10.0,69,-99.99,,,-99.99,,2013-02-27 15:23:00,
2013-02-27 10:32:00,36.0,27.0,-100.00,SE,143,2.0,8.0,70,-99.99,,,-99.99,,2013-02-27 15:32:00,
2013-02-27 10:42:00,36.0,27.0,-100.00,ESE,123,5.0,10.0,68,-99.99,,,-99.99,,2013-02-27 15:42:00,
2013-02-27 10:52:00,37.0,28.0,-100.00,East,93,6.0,11.0,68,-99.99,,,-99.99,,2013-02-27 15:52:00,
2013-02-27 11:02:00,37.0,28.0,-100.00,ESE,114,4.0,10.0,68,-99.99,,,-99.99,,2013-02-27 16:02:00,
2013-02-27 11:12:00,37.0,28.0,-100.00,ESE,119,6.0,13.0,68,-99.99,,,-99.99,,2013-02-27 16:12:00,
2013-02-27 11:22:00,37.0,28.0,-100.00,East,90,8.0,17.0,68,-99.99,,,-99.99,,2013-02-27 16:22:00,
2013-02-27 11:32:00,37.0,28.0,-100.00,ESE,108,9.0,20.0,68,-99.99,,,-99.99,,2013-02-27 16:32:00,
2013-02-27 11:42:00,37.0,28.0,-100.00,SE,126,7.0,19.0,69,-99.99,,,-99.99,,2013-02-27 16:42:00,
2013-02-27 11:52:00,37.0,28.0,-100.00,East,95,10.0,19.0,68,-99.99,,,-99.99,,2013-02-27 16:52:00,
2013-02-27 12:02:00,37.0,28.0,-100.00,SE,130,7.0,13.0,68,-99.99,,,-99.99,,2013-02-27 17:02:00,
2013-02-27 12:11:00,38.0,28.0,-100.00,ESE,103,4.0,10.0,69,-99.99,,,-99.99,,2013-02-27 17:11:00,
2013-02-27 12:21:00,38.0,29.0,-100.00,SE,136,4.0,8.0,70,-99.99,,,-99.99,,2013-02-27 17:21:00,
2013-02-27 12:32:00,37.0,30.0,-100.00,SE,142,6.0,11.0,77,-99.99,,,-99.99,,2013-02-27 17:32:00,
2013-02-27 12:42:00,36.0,31.0,-100.00,SE,128,6.0,17.0,82,-99.99,,,-99.99,,2013-02-27 17:42:00,
2013-02-27 12:52:00,35.0,31.0,-100.00,ESE,109,8.0,13.0,85,-99.99,,,-99.99,,2013-02-27 17:52:00,
2013-02-27 13:02:00,34.0,32.0,-100.00,SE,143,6.0,13.0,90,-99.99,,,-99.99,,2013-02-27 18:02:00,
2013-02-27 13:11:00,33.0,32.0,-100.00,ESE,106,8.0,17.0,93,-99.99,,,-99.99,,2013-02-27 18:11:00,
2013-02-27 13:22:00,33.0,32.0,-100.00,SE,125,5.0,11.0,96,-99.99,,,-99.99,,2013-02-27 18:22:00,
2013-02-27 13:32:00,32.0,32.0,-100.00,ENE,73,0.0,2.0,98,-99.99,,,-99.99,,2013-02-27 18:32:00,
2013-02-27 13:42:00,32.0,32.0,-100.00,South,186,0.0,2.0,98,-99.99,,,-99.99,,2013-02-27 18:42:00,
2013-02-27 13:52:00,32.0,32.0,-100.00,ESE,117,0.0,0.0,99,-99.99,,,-99.99,,2013-02-27 18:52:00,
2013-02-27 14:02:00,32.0,32.0,-100.00,NE,44,0.0,0.0,99,-99.99,,,-99.99,,2013-02-27 19:02:00,
2013-02-27 14:12:00,32.0,32.0,-100.00,ENE,70,0.0,0.0,99,-99.99,,,-99.99,,2013-02-27 19:12:00,
2013-02-27 14:22:00,32.0,32.0,-100.00,ESE,114,0.0,0.0,99,-99.99,,,-99.99,,2013-02-27 19:22:00,
2013-02-27 14:32:00,32.0,32.0,-100.00,East,101,0.0,2.0,99,-99.99,,,-99.99,,2013-02-27 19:32:00,
2013-02-27 14:42:00,32.0,32.0,-100.00,East,81,0.0,2.0,99,-99.99,,,-99.99,,2013-02-27 19:42:00,
2013-02-27 14:52:00,32.0,32.0,-100.00,NE,55,0.0,2.0,100,-99.99,,,-99.99,,2013-02-27 19:52:00,
2013-02-27 15:02:00,32.0,32.0,-100.00,NE,39,0.0,2.0,100,-99.99,,,-99.99,,2013-02-27 20:02:00,
2013-02-27 15:12:00,32.0,32.0,-100.00,North,8,0.0,2.0,100,-99.99,,,-99.99,,2013-02-27 20:12:00,
2013-02-27 15:22:00,32.0,32.0,-100.00,NW,325,0.0,2.0,100,-99.99,,,-99.99,,2013-02-27 20:22:00,
2013-02-27 15:32:00,32.0,32.0,-100.00,WNW,288,0.0,0.0,100,-99.99,,,-99.99,,2013-02-27 20:32:00,
2013-02-27 15:42:00,32.0,32.0,-100.00,NE,49,0.0,2.0,100,-99.99,,,-99.99,,2013-02-27 20:42:00,
2013-02-27 15:52:00,32.0,32.0,-100.00,East,94,0.0,2.0,100,-99.99,,,-99.99,,2013-02-27 20:52:00,
2013-02-27 16:02:00,32.0,32.0,-100.00,ESE,109,0.0,2.0,100,-99.99,,,-99.99,,2013-02-27 21:02:00,
2013-02-27 16:11:00,32.0,32.0,-100.00,East,96,1.0,13.0,99,-99.99,,,-99.99,,2013-02-27 21:11:00,
2013-02-27 16:22:00,32.0,32.0,-100.00,East,88,1.0,6.0,98,-99.99,,,-99.99,,2013-02-27 21:22:00,
2013-02-27 16:32:00,32.0,32.0,-100.00,SE,133,4.0,11.0,97,-99.99,,,-99.99,,2013-02-27 21:32:00,
2013-02-27 16:42:00,33.0,31.0,-100.00,SE,143,6.0,13.0,92,-99.99,,,-99.99,,2013-02-27 21:42:00,
2013-02-27 16:52:00,33.0,30.0,-100.00,SE,125,7.0,15.0,90,-99.99,,,-99.99,,2013-02-27 21:52:00,
2013-02-27 17:02:00,33.0,30.0,-100.00,East,97,10.0,17.0,87,-99.99,,,-99.99,,2013-02-27 22:02:00,
2013-02-27 17:11:00,33.0,30.0,-100.00,ESE,110,7.0,13.0,88,-99.99,,,-99.99,,2013-02-27 22:11:00,
2013-02-27 17:22:00,33.0,30.0,-100.00,ESE,102,9.0,19.0,88,-99.99,,,-99.99,,2013-02-27 22:22:00,
2013-02-27 17:32:00,33.0,29.0,-100.00,ESE,106,9.0,17.0,85,-99.99,,,-99.99,,2013-02-27 22:32:00,
2013-02-27 17:42:00,33.0,28.0,-100.00,East,94,10.0,20.0,83,-99.99,,,-99.99,,2013-02-27 22:42:00,
2013-02-27 17:52:00,33.0,28.0,-100.00,SSE,148,9.0,19.0,83,-99.99,,,-99.99,,2013-02-27 22:52:00,
2013-02-27 18:01:00,33.0,28.0,-100.00,ESE,105,9.0,22.0,81,-99.99,,,-99.99,,2013-02-27 23:01:00,
2013-02-27 18:11:00,33.0,28.0,-100.00,ESE,105,9.0,22.0,81,-99.99,,,-99.99,,2013-02-27 23:11:00,
2013-02-27 18:22:00,33.0,28.0,-100.00,SSE,150,5.0,10.0,81,-99.99,,,-99.99,,2013-02-27 23:22:00,
2013-02-27 18:32:00,32.0,27.0,-100.00,East,94,9.0,17.0,82,-99.99,,,-99.99,,2013-02-27 23:32:00,
2013-02-27 18:42:00,32.0,27.0,-100.00,East,94,9.0,17.0,82,-99.99,,,-99.99,,2013-02-27 23:42:00,
2013-02-27 18:52:00,32.0,27.0,-100.00,SSE,156,8.0,15.0,79,-99.99,,,-99.99,,2013-02-27 23:52:00,
2013-02-27 19:02:00,32.0,27.0,-100.00,ESE,119,7.0,13.0,80,-99.99,,,-99.99,,2013-02-28 00:02:00,
2013-02-27 19:12:00,32.0,27.0,-100.00,SE,146,5.0,10.0,80,-99.99,,,-99.99,,2013-02-28 00:12:00,
2013-02-27 19:22:00,32.0,27.0,-100.00,SE,139,4.0,10.0,79,-99.99,,,-99.99,,2013-02-28 00:22:00,
2013-02-27 19:32:00,33.0,26.0,-100.00,South,171,8.0,15.0,76,-99.99,,,-99.99,,2013-02-28 00:32:00,
2013-02-27 19:42:00,33.0,26.0,-100.00,South,171,8.0,15.0,76,-99.99,,,-99.99,,2013-02-28 00:42:00,
2013-02-27 19:52:00,32.0,27.0,-100.00,SSE,168,3.0,8.0,79,-99.99,,,-99.99,,2013-02-28 00:52:00,
2013-02-27 20:01:00,32.0,26.0,-100.00,East,100,4.0,11.0,78,-99.99,,,-99.99,,2013-02-28 01:01:00,
2013-02-27 20:11:00,32.0,27.0,-100.00,ESE,113,5.0,13.0,79,-99.99,,,-99.99,,2013-02-28 01:11:00,
2013-02-27 20:22:00,32.0,27.0,-100.00,East,90,2.0,4.0,82,-99.99,,,-99.99,,2013-02-28 01:22:00,
2013-02-27 20:32:00,32.0,26.0,-100.00,ESE,102,5.0,11.0,79,-99.99,,,-99.99,,2013-02-28 01:32:00,
2013-02-27 20:42:00,32.0,26.0,-100.00,East,91,6.0,15.0,77,-99.99,,,-99.99,,2013-02-28 01:42:00,
2013-02-27 20:52:00,33.0,25.0,-100.00,SE,143,7.0,15.0,74,-99.99,,,-99.99,,2013-02-28 01:52:00,
2013-02-27 21:01:00,32.0,25.0,-100.00,ESE,116,3.0,8.0,74,-99.99,,,-99.99,,2013-02-28 02:01:00,
2013-02-27 21:11:00,32.0,25.0,-100.00,SSE,149,4.0,10.0,74,-99.99,,,-99.99,,2013-02-28 02:11:00,
2013-02-27 21:22:00,32.0,26.0,-100.00,ESE,102,8.0,19.0,76,-99.99,,,-99.99,,2013-02-28 02:22:00,
2013-02-27 21:32:00,32.0,26.0,-100.00,ENE,77,7.0,15.0,78,-99.99,,,-99.99,,2013-02-28 02:32:00,
2013-02-27 21:42:00,32.0,26.0,-100.00,ENE,77,7.0,15.0,78,-99.99,,,-99.99,,2013-02-28 02:42:00,
2013-02-27 21:52:00,32.0,26.0,-100.00,ENE,77,7.0,15.0,78,-99.99,,,-99.99,,2013-02-28 02:52:00,
2013-02-27 22:02:00,32.0,26.0,-100.00,ESE,121,6.0,11.0,79,-99.99,,,-99.99,,2013-02-28 03:02:00,
2013-02-27 22:11:00,32.0,27.0,-100.00,East,91,8.0,15.0,80,-99.99,,,-99.99,,2013-02-28 03:11:00,
2013-02-27 22:22:00,32.0,27.0,-100.00,SE,130,8.0,13.0,80,-99.99,,,-99.99,,2013-02-28 03:22:00,
2013-02-27 22:32:00,32.0,27.0,-100.00,East,83,8.0,17.0,82,-99.99,,,-99.99,,2013-02-28 03:32:00,
2013-02-27 22:42:00,32.0,27.0,-100.00,ENE,67,7.0,11.0,82,-99.99,,,-99.99,,2013-02-28 03:42:00,
2013-02-27 22:52:00,32.0,27.0,-100.00,SSE,156,6.0,11.0,82,-99.99,,,-99.99,,2013-02-28 03:52:00,
2013-02-27 23:02:00,32.0,28.0,-100.00,ENE,73,5.0,13.0,84,-99.99,,,-99.99,,2013-02-28 04:02:00,
2013-02-27 23:11:00,32.0,28.0,-100.00,East,90,6.0,11.0,85,-99.99,,,-99.99,,2013-02-28 04:11:00,
2013-02-27 23:22:00,32.0,28.0,-100.00,SE,129,5.0,8.0,86,-99.99,,,-99.99,,2013-02-28 04:22:00,
2013-02-27 23:32:00,31.0,28.0,-100.00,East,79,4.0,10.0,88,-99.99,,,-99.99,,2013-02-28 04:32:00,
2013-02-27 23:42:00,32.0,28.0,-100.00,ESE,111,7.0,13.0,88,-99.99,,,-99.99,,2013-02-28 04:42:00,
2013-02-27 23:52:00,32.0,28.0,-100.00,ESE,108,5.0,10.0,87,-99.99,,,-99.99,,2013-02-28 04:52:00,